This demonstration page uses our WeatherBlox Daily Observations layout. Learn more.

Left ArrowRight Arrow

39.29038, -76.61219

Hourly Observations for October 27, 2021

Temp ( °F °C ) Dew Point ( °F °C ) Humidity (%) Winds ( mph kmh ) Pressure ( in mb ) Visibility ( mi km ) Precip ( " mm )
12:54 am 00:54 Cloudy 52 11.1 42 5.6 69 69 WNW 18 30 29.61 1003 10 16 N/A
1:25 am 01:25 Cloudy 52 11.1 43 6.1 72 72 WNW 14 22 29.62 1003 10 16 N/A
1:54 am 01:54 Cloudy 52 11.1 43 6.1 72 72 WNW 15 24 29.62 1003 10 16 N/A
2:54 am 02:54 Cloudy 52 11.1 45 7.2 77 77 NW 9 15 29.62 1003 10 16 N/A
3:05 am 03:05 Cloudy 52 11.1 46 7.8 80 80 NW 13 20 29.63 1003 10 16 N/A
3:54 am 03:54 Cloudy 53 11.7 46 7.8 77 77 NW 9 15 29.65 1004 10 16 N/A
4:34 am 04:34 Cloudy 53 11.7 48 8.9 83 83 NW 13 20 29.66 1004 10 16 N/A
4:54 am 04:54 Cloudy 53 11.7 49 9.4 86 86 NW 14 22 29.66 1004 10 16 N/A
5:54 am 05:54 Mostly Cloudy 53 11.7 48 8.9 83 83 WNW 12 19 29.67 1005 10 16 N/A
6:54 am 06:54 Mostly Cloudy 55 12.8 48 8.9 77 77 WNW 14 22 29.69 1005 10 16 N/A
7:54 am 07:54 Mostly Cloudy 56 13.3 47 8.3 72 72 WNW 14 22 29.69 1006 10 16 N/A
8:54 am 08:54 Mostly Cloudy 58 14.4 48 8.9 70 70 NW 16 26 29.69 1006 10 16 N/A
9:54 am 09:54 Partly Cloudy 62 16.7 49 9.4 62 62 NW 17 28 29.72 1006 10 16 N/A
10:54 am 10:54 Partly Cloudy 66 18.9 51 10.6 59 59 NW 17 28 29.73 1007 10 16 N/A
11:54 am 11:54 Mostly Sunny 68 20 51 10.6 55 55 NW 15 24 29.73 1007 10 16 N/A
12:54 pm 12:54 Mostly Sunny 70 21.1 51 10.6 51 51 NW 15 24 29.74 1007 10 16 N/A
1:54 pm 13:54 Mostly Sunny 71 21.7 51 10.6 49 49 NNW 16 26 29.74 1007 10 16 N/A
2:54 pm 14:54 Mostly Sunny 72 22.2 51 10.6 48 48 N 12 19 29.74 1007 10 16 N/A
3:54 pm 15:54 Partly Cloudy 73 22.8 51 10.6 46 46 NNW 10 17 29.74 1007 10 16 N/A
4:54 pm 16:54 Partly Cloudy 71 21.7 51 10.6 49 49 N 9 15 29.76 1008 10 16 N/A
5:54 pm 17:54 Partly Cloudy 69 20.6 51 10.6 53 53 NNW 12 19 29.78 1009 10 16 N/A
6:54 pm 18:54 Mostly Clear 66 18.9 51 10.6 59 59 N 6 9 29.80 1009 10 16 N/A
7:54 pm 19:54 Clear 62 16.7 51 10.6 67 67 NW 5 7 29.83 1010 10 16 N/A
8:54 pm 20:54 Clear 63 17.2 50 10 63 63 NNE 5 7 29.84 1011 10 16 N/A
9:54 pm 21:54 Clear 57 13.9 50 10 78 78 WNW 5 7 29.85 1011 10 16 N/A
10:54 pm 22:54 Clear 55 12.8 50 10 83 83 WNW 5 7 29.88 1012 10 16 N/A
11:54 pm 23:54 Clear 55 12.8 49 9.4 80 80 W 3 6 29.88 1012 10 16 N/A

Powered by AerisWeather